Weather History for Crestview, FL

Change the Weather History Date:

Monday, December 30, 2013

  Actual Average Record
Temperature  
Mean Temperature 46 °F -  
Max Temperature 58 °F - - ()
Min Temperature 33 °F - - ()
Degree Days  
Heating Degree Days 20    
Moisture  
Dew Point 40 °F    
Average Humidity 95    
Maximum Humidity 100    
Minimum Humidity 59    
Precipitation  
Precipitation 0.00 in - - ()
Sea Level Pressure  
Sea Level Pressure 30.15 in    
Wind  
Wind Speed 0 mph (North)    
Max Wind Speed 6 mph    
Max Gust Speed -    
Visibility 4 miles    
Events Fog    
T = Trace of Precipitation, MM = Missing Value Source: NWS Daily Summary

Daily Weather History Graph

Daily Weather History Graph

Search for Another Location

Airport:

Trip Planner

Search our weather history database for the weather conditions in past years. The results will help you decide how hot, cold, wet, or windy it might be!

Date:

Astronomy

Dec. 30, 2013 Rise Set
Actual Time 6:43 AM CST 4:54 PM CST
Civil Twilight 6:16 AM CST 5:21 PM CST
Nautical Twilight 5:46 AM CST 5:51 PM CST
Astronomical Twilight 5:17 AM CST 6:20 PM CST
Moon 4:35 AM CST (12/30) 3:24 PM CST (12/30)
Length of Visible Light 11h 04m
Length of Day
10h 11m
Waning Crescent, 4% of the Moon is Illuminated
Dec 30
Waning Crescent
Jan 1
New
Jan 7
First Quarter
Jan 15
Full
Jan 23
Last Quarter

Hourly Weather History & Observations

Time (CST) Temp. Dew Point Humidity Pressure Visibility Wind Dir Wind Speed Gust Speed Precip Events Conditions
12:43 AM 39.2 °F 39.2 °F 100% 30.11 in 1.5 mi Calm Calm - N/A   Clear
12:48 AM 37.4 °F 37.4 °F 100% 30.11 in 1.0 mi Calm Calm - N/A   Clear
12:53 AM 37.4 °F 37.4 °F 100% 30.11 in 1.2 mi Calm Calm - N/A   Clear
12:58 AM 37.8 °F 37.6 °F 99% 30.13 in 1.8 mi Calm Calm - N/A   Clear
1:03 AM 39.2 °F 39.2 °F 100% 30.12 in 1.8 mi Calm Calm - N/A   Clear
1:08 AM 37.4 °F 37.4 °F 100% 30.12 in 2.0 mi Calm Calm - N/A   Clear
1:13 AM 39.2 °F 37.4 °F 93% 30.12 in 8.0 mi Calm Calm - N/A   Clear
1:58 AM 36.9 °F 36.7 °F 99% 30.13 in 4.0 mi Calm Calm - N/A   Clear
2:18 AM 37.4 °F 35.6 °F 93% 30.12 in 2.5 mi Calm Calm - N/A   Clear
2:28 AM 37.4 °F 35.6 °F 93% 30.12 in 4.0 mi Calm Calm - N/A   Clear
2:58 AM 35.6 °F 35.6 °F 100% 30.12 in 2.5 mi Calm Calm - N/A   Clear
3:03 AM 35.6 °F 35.6 °F 100% 30.11 in 0.5 mi Calm Calm - N/A Fog Fog
3:28 AM 35.6 °F 35.6 °F 100% 30.12 in 0.8 mi Calm Calm - N/A   Clear
3:33 AM 35.6 °F 35.6 °F 100% 30.12 in 0.5 mi Calm Calm - N/A Fog Fog
3:43 AM 35.6 °F 35.6 °F 100% 30.13 in 0.8 mi Calm Calm - N/A   Clear
3:58 AM 35.2 °F 34.9 °F 99% 30.14 in 0.8 mi Calm Calm - N/A   Clear
4:08 AM 35.6 °F 35.6 °F 100% 30.14 in 1.0 mi NNW 2.3 mph - N/A   Clear
4:13 AM 35.6 °F 33.8 °F 93% 30.14 in 1.2 mi NW 2.3 mph - N/A   Clear
4:18 AM 33.8 °F 33.8 °F 100% 30.13 in 1.5 mi Calm Calm - N/A   Clear
4:28 AM 33.8 °F 33.8 °F 100% 30.14 in 1.2 mi Calm Calm - N/A   Clear
4:33 AM 33.8 °F 33.8 °F 100% 30.14 in 0.8 mi Calm Calm - N/A   Clear
4:43 AM 35.6 °F 35.6 °F 100% 30.13 in 0.5 mi North 2.3 mph - N/A Fog Fog
4:48 AM 35.6 °F 35.6 °F 100% 30.13 in 0.8 mi North 1.2 mph - N/A   Clear
4:58 AM 35.6 °F 35.4 °F 99% 30.15 in 1.0 mi Variable 2.3 mph - N/A   Clear
5:03 AM 35.6 °F 35.6 °F 100% 30.14 in 1.2 mi North 1.2 mph - N/A   Clear
5:08 AM 35.6 °F 35.6 °F 100% 30.14 in 1.0 mi North 2.3 mph - N/A   Clear
5:13 AM 35.6 °F 35.6 °F 100% 30.13 in 0.5 mi Calm Calm - N/A Fog Fog
5:18 AM 35.6 °F 35.6 °F 100% 30.13 in 0.2 mi NNE 2.3 mph - N/A Fog Fog
5:23 AM 35.6 °F 35.6 °F 100% 30.13 in 0.5 mi Calm Calm - N/A Fog Fog
5:38 AM 35.6 °F 35.6 °F 100% 30.14 in 0.8 mi Calm Calm - N/A   Clear
5:43 AM 35.6 °F 33.8 °F 93% 30.14 in 1.0 mi Calm Calm - N/A   Clear
5:48 AM 35.6 °F 35.6 °F 100% 30.14 in 0.8 mi Calm Calm - N/A   Clear
5:53 AM 35.6 °F 35.6 °F 100% 30.14 in 0.5 mi Calm Calm - N/A Fog Fog
5:58 AM 35.1 °F 34.9 °F 99% 30.15 in 0.5 mi Calm Calm - N/A Fog Fog
6:03 AM 35.6 °F 35.6 °F 100% 30.14 in 0.8 mi Calm Calm - N/A   Clear
6:08 AM 35.6 °F 35.6 °F 100% 30.14 in 1.0 mi Calm Calm - N/A   Clear
6:13 AM 35.6 °F 35.6 °F 100% 30.14 in 1.8 mi Calm Calm - N/A   Clear
6:18 AM 35.6 °F 35.6 °F 100% 30.15 in 2.0 mi NNE 1.2 mph - N/A   Clear
6:28 AM 35.6 °F 35.6 °F 100% 30.15 in 3.0 mi Calm Calm - N/A   Clear
6:58 AM 36.5 °F 36.3 °F 99% 30.17 in 10.0 mi Calm Calm - N/A   Clear
7:58 AM 42.3 °F 42.1 °F 99% 30.18 in 10.0 mi NE 2.3 mph - N/A   Scattered Clouds
8:55 AM 44.6 °F 44.2 °F 99% 30.19 in 10.0 mi NE 1.2 mph - N/A   Mostly Cloudy
9:55 AM 48.9 °F 48.9 °F 100% 30.22 in 10.0 mi Calm Calm - N/A   Overcast
10:55 AM 53.6 °F 53.4 °F 99% 30.21 in 10.0 mi NE 2.3 mph - N/A   Mostly Cloudy
11:55 AM 57.0 °F 44.4 °F 63% 30.17 in 10.0 mi Calm Calm - N/A   Mostly Cloudy
12:55 PM 58.1 °F 45.7 °F 63% 30.17 in 10.0 mi NNE 1.2 mph - N/A   Mostly Cloudy
1:55 PM 57.9 °F 43.5 °F 59% 30.14 in 10.0 mi NNE 1.2 mph - N/A   Overcast
2:55 PM 57.6 °F 44.8 °F 62% 30.14 in 10.0 mi Calm Calm - N/A   Overcast
3:55 PM 55.4 °F 49.6 °F 81% 30.17 in 10.0 mi Calm Calm - N/A   Overcast
4:55 PM 53.1 °F 49.6 °F 88% 30.18 in 10.0 mi Calm Calm - 0.00 in   Light Drizzle
5:38 PM 53.6 °F 50.0 °F 88% 30.18 in 10.0 mi South 2.3 mph - N/A   Overcast
5:55 PM 52.7 °F 51.1 °F 94% 30.21 in 10.0 mi Calm Calm - 0.00 in   Light Drizzle
6:55 PM 51.6 °F 51.1 °F 98% 30.21 in 10.0 mi Calm Calm - 0.00 in   Overcast
7:55 PM 50.9 °F 50.7 °F 99% 30.25 in 10.0 mi Calm Calm - N/A   Overcast
8:55 PM 50.5 °F 50.4 °F 99% 30.24 in 10.0 mi Calm Calm - N/A   Overcast
9:55 PM 50.4 °F 50.0 °F 99% 30.24 in 10.0 mi Calm Calm - N/A   Overcast
10:55 PM 51.1 °F 49.8 °F 95% 30.26 in 10.0 mi NW 5.8 mph - N/A   Overcast
11:55 PM 50.9 °F 48.2 °F 90% 30.25 in 10.0 mi NNW 1.2 mph - N/A   Overcast